| time (UTC) | temp F | wind direction | speed MPH | gust MPH | rain 1hr in | rain 24hr in | rain mn in | humidity % | barometer mb |
| 20260906102555 | 76 | 0 | 0.0 | 0.0 | 0.00 | 0.00 | 0.00 | 84 | 1012.6 |
| 20260906102055 | 76 | 0 | 0.0 | 0.0 | 0.00 | 0.00 | 0.00 | 84 | 1012.4 |
| 20260906101620 | 76 | 0 | 0.0 | 0.0 | 0.00 | 0.00 | 0.00 | 84 | 1012.5 |
| 20260906101055 | 76 | 0 | 0.0 | 0.0 | 0.00 | 0.00 | 0.00 | 84 | 1012.4 |
| 20260906100555 | 76 | 0 | 0.0 | 0.0 | 0.00 | 0.00 | 0.00 | 83 | 1012.3 |
| 20260906100101 | 76 | 0 | 0.0 | 0.0 | 0.00 | 0.00 | 0.00 | 83 | 1012.3 |
| 20260906095556 | 76 | 0 | 0.0 | 0.0 | 0.00 | 0.00 | 0.00 | 83 | 1012.2 |
| 20260906095055 | 76 | 0 | 0.0 | 0.0 | 0.00 | 0.00 | 0.00 | 83 | 1012.2 |
| 20260906094606 | 76 | 0 | 0.0 | 0.0 | 0.00 | 0.00 | 0.00 | 83 | 1012.2 |
| 20260906094055 | 76 | 0 | 0.0 | 0.0 | 0.00 | 0.00 | 0.00 | 83 | 1012.2 |
| 20260906093556 | 77 | 0 | 0.0 | 0.0 | 0.00 | 0.00 | 0.00 | 83 | 1012.3 |
| 20260906093101 | 77 | 0 | 0.0 | 0.0 | 0.00 | 0.00 | 0.00 | 82 | 1012.3 |
| 20260906092555 | 77 | 0 | 0.0 | 0.0 | 0.00 | 0.00 | 0.00 | 82 | 1012.2 |
| 20260906092056 | 77 | 0 | 0.0 | 0.0 | 0.00 | 0.00 | 0.00 | 82 | 1012.1 |
| 20260906091606 | 77 | 0 | 0.0 | 0.0 | 0.00 | 0.00 | 0.00 | 81 | 1012.2 |
| 20260906091055 | 78 | 0 | 0.0 | 0.0 | 0.00 | 0.00 | 0.00 | 81 | 1012.0 |
| 20260906090556 | 78 | 0 | 0.0 | 0.0 | 0.00 | 0.00 | 0.00 | 80 | 1011.9 |
| 20260906090104 | 78 | 0 | 0.0 | 0.0 | 0.00 | 0.00 | 0.00 | 81 | 1011.8 |
| 20260906085554 | 78 | 0 | 0.0 | 0.0 | 0.00 | 0.00 | 0.00 | 80 | 1011.7 |
| 20260906085055 | 78 | 0 | 0.0 | 0.0 | 0.00 | 0.00 | 0.00 | 80 | 1011.9 |
| 20260906084602 | 78 | 0 | 0.0 | 0.0 | 0.00 | 0.00 | 0.00 | 80 | 1011.9 |
| 20260906084056 | 78 | 0 | 0.0 | 0.0 | 0.00 | 0.00 | 0.00 | 80 | 1011.9 |
| 20260906083556 | 78 | 0 | 0.0 | 0.0 | 0.00 | 0.00 | 0.00 | 80 | 1011.8 |
| 20260906083106 | 78 | 0 | 0.0 | 0.0 | 0.00 | 0.00 | 0.00 | 79 | 1011.9 |
| 20260906082558 | 79 | 0 | 0.0 | 1.0 | 0.00 | 0.00 | 0.00 | 79 | 1011.9 |
| 20260906082055 | 79 | 0 | 0.0 | 1.0 | 0.00 | 0.00 | 0.00 | 78 | 1012.0 |
| 20260906081605 | 79 | 0 | 0.0 | 0.0 | 0.00 | 0.00 | 0.00 | 78 | 1012.2 |
| 20260906081055 | 79 | 0 | 0.0 | 0.0 | 0.00 | 0.00 | 0.00 | 78 | 1012.1 |
| 20260906080555 | 79 | 0 | 0.0 | 0.0 | 0.00 | 0.00 | 0.00 | 78 | 1012.2 |
| 20260906080105 | 79 | 0 | 0.0 | 0.0 | 0.00 | 0.00 | 0.00 | 78 | 1012.3 |
| 20260906075555 | 79 | 0 | 0.0 | 0.0 | 0.00 | 0.00 | 0.00 | 78 | 1012.1 |
| 20260906075055 | 80 | 0 | 0.0 | 1.0 | 0.00 | 0.00 | 0.00 | 76 | 1012.1 |
| 20260906074602 | 80 | 0 | 0.0 | 1.0 | 0.00 | 0.00 | 0.00 | 76 | 1012.0 |
| 20260906074057 | 80 | 0 | 0.0 | 2.0 | 0.00 | 0.00 | 0.00 | 76 | 1012.2 |
| 20260906073559 | 80 | 41 | 0.0 | 2.0 | 0.00 | 0.00 | 0.00 | 76 | 1012.1 |
| 20260906073100 | 81 | 0 | 0.0 | 1.0 | 0.00 | 0.00 | 0.00 | 76 | 1012.2 |
| 20260906072556 | 81 | 0 | 0.0 | 1.0 | 0.00 | 0.00 | 0.00 | 76 | 1012.1 |
| 20260906072056 | 81 | 0 | 0.0 | 2.0 | 0.00 | 0.00 | 0.00 | 75 | 1012.2 |
| 20260906071607 | 81 | 0 | 0.0 | 2.0 | 0.00 | 0.00 | 0.00 | 75 | 1012.2 |
| 20260906071055 | 81 | 0 | 0.0 | 1.0 | 0.00 | 0.00 | 0.00 | 74 | 1012.4 |
| 20260906070556 | 82 | 0 | 0.0 | 1.0 | 0.00 | 0.00 | 0.00 | 74 | 1012.4 |
| 20260906070104 | 82 | 0 | 0.0 | 2.0 | 0.00 | 0.00 | 0.00 | 74 | 1012.4 |
| 20260906065555 | 82 | 0 | 0.0 | 2.0 | 0.00 | 0.00 | 0.00 | 73 | 1012.4 |
| 20260906065056 | 82 | 46 | 0.0 | 2.0 | 0.00 | 0.00 | 0.00 | 73 | 1012.7 |
| 20260906064604 | 83 | 44 | 0.0 | 3.0 | 0.00 | 0.00 | 0.00 | 72 | 1012.6 |
| 20260906064059 | 83 | 0 | 1.0 | 3.0 | 0.00 | 0.00 | 0.00 | 72 | 1012.6 |
| 20260906063555 | 83 | 0 | 0.0 | 1.0 | 0.00 | 0.00 | 0.00 | 73 | 1012.7 |
| 20260906063100 | 83 | 0 | 0.0 | 2.0 | 0.00 | 0.00 | 0.00 | 73 | 1012.8 |
| 20260906062556 | 83 | 0 | 0.0 | 2.0 | 0.00 | 0.00 | 0.00 | 73 | 1012.8 |
| 20260906062055 | 83 | 0 | 0.0 | 2.0 | 0.00 | 0.00 | 0.00 | 73 | 1012.9 |
| 20260906061606 | 83 | 213 | 0.0 | 2.0 | 0.00 | 0.00 | 0.00 | 73 | 1013.0 |
| 20260906061055 | 83 | 0 | 0.0 | 2.0 | 0.00 | 0.00 | 0.00 | 74 | 1012.9 |
| 20260906060555 | 83 | 0 | 0.0 | 2.0 | 0.00 | 0.00 | 0.00 | 74 | 1012.8 |
| 20260906060136 | 83 | 0 | 0.0 | 2.0 | 0.00 | 0.00 | 0.00 | 74 | 1012.8 |
| 20260906055555 | 83 | 0 | 0.0 | 2.0 | 0.00 | 0.00 | 0.00 | 74 | 1012.8 |
| 20260906055055 | 83 | 0 | 0.0 | 1.0 | 0.00 | 0.00 | 0.00 | 74 | 1012.8 |
| 20260906054615 | 83 | 0 | 0.0 | 2.0 | 0.00 | 0.00 | 0.00 | 73 | 1012.7 |
| 20260906054056 | 83 | 0 | 0.0 | 3.0 | 0.00 | 0.00 | 0.00 | 73 | 1012.7 |
| 20260906053555 | 83 | 0 | 0.0 | 3.0 | 0.00 | 0.00 | 0.00 | 72 | 1012.7 |
| 20260906053101 | 83 | 0 | 0.0 | 2.0 | 0.00 | 0.00 | 0.00 | 72 | 1012.7 |
| 20260906052556 | 83 | 0 | 0.0 | 2.0 | 0.00 | 0.00 | 0.00 | 72 | 1012.6 |
| 20260906052056 | 83 | 70 | 0.0 | 2.0 | 0.00 | 0.00 | 0.00 | 72 | 1012.7 |
| 20260906051605 | 83 | 68 | 0.0 | 2.0 | 0.00 | 0.00 | 0.00 | 71 | 1012.6 |
| 20260906051059 | 84 | 0 | 0.0 | 2.0 | 0.00 | 0.00 | 0.00 | 71 | 1012.4 |
| 20260906050559 | 84 | 0 | 0.0 | 2.0 | 0.00 | 0.00 | 0.00 | 71 | 1012.3 |
| 20260906050105 | 84 | 0 | 0.0 | 2.0 | 0.00 | 0.00 | 0.00 | 70 | 1012.3 |
| 20260906045556 | 84 | 0 | 0.0 | 2.0 | 0.00 | 0.00 | 0.00 | 70 | 1012.6 |
| 20260906045056 | 84 | 0 | 0.0 | 3.0 | 0.00 | 0.00 | 0.00 | 70 | 1012.7 |
| 20260906044602 | 85 | 0 | 0.0 | 3.0 | 0.00 | 0.00 | 0.00 | 69 | 1012.8 |
| 20260906044100 | 85 | 0 | 0.0 | 3.0 | 0.00 | 0.00 | 0.00 | 69 | 1012.8 |
| 20260906043555 | 85 | 0 | 1.0 | 3.0 | 0.00 | 0.00 | 0.00 | 68 | 1012.7 |
| 20260906043105 | 85 | 104 | 1.0 | 3.0 | 0.00 | 0.00 | 0.00 | 68 | 1012.7 |
| 20260906042556 | 85 | 61 | 0.0 | 3.0 | 0.00 | 0.00 | 0.00 | 68 | 1012.5 |
| 20260906042055 | 85 | 67 | 1.0 | 3.0 | 0.00 | 0.00 | 0.00 | 67 | 1012.5 |
| 20260906041605 | 86 | 34 | 0.0 | 3.0 | 0.00 | 0.00 | 0.00 | 67 | 1012.3 |
| 20260906041055 | 86 | 55 | 0.0 | 4.0 | 0.00 | 0.00 | 0.00 | 66 | 1012.3 |
| 20260906040556 | 86 | 49 | 1.0 | 5.0 | 0.00 | 0.00 | 0.00 | 65 | 1012.4 |
| 20260906040109 | 86 | 275 | 0.0 | 5.0 | 0.00 | 0.00 | 0.00 | 65 | 1012.4 |
| 20260906035555 | 87 | 49 | 1.0 | 4.0 | 0.00 | 0.00 | 0.00 | 64 | 1012.5 |
| 20260906035055 | 87 | 160 | 1.0 | 5.0 | 0.00 | 0.00 | 0.00 | 63 | 1012.6 |
| 20260906034607 | 87 | 53 | 1.0 | 5.0 | 0.00 | 0.00 | 0.00 | 62 | 1012.6 |
| 20260906034055 | 87 | 208 | 0.0 | 2.0 | 0.00 | 0.00 | 0.00 | 61 | 1012.6 |
| 20260906033554 | 87 | 113 | 0.0 | 2.0 | 0.00 | 0.00 | 0.00 | 61 | 1012.9 |
| 20260906033100 | 87 | 0 | 0.0 | 3.0 | 0.00 | 0.00 | 0.00 | 60 | 1012.7 |
| 20260906032554 | 88 | 162 | 0.0 | 3.0 | 0.00 | 0.00 | 0.00 | 59 | 1012.5 |
| 20260906032055 | 88 | 64 | 1.0 | 4.0 | 0.00 | 0.00 | 0.00 | 59 | 1012.5 |
| 20260906031606 | 88 | 65 | 1.0 | 4.0 | 0.00 | 0.00 | 0.00 | 59 | 1012.5 |
| 20260906031055 | 88 | 62 | 0.0 | 2.0 | 0.00 | 0.00 | 0.00 | 59 | 1012.5 |
| 20260906030555 | 88 | 32 | 0.0 | 2.0 | 0.00 | 0.00 | 0.00 | 59 | 1012.3 |
| 20260906030101 | 88 | 0 | 0.0 | 2.0 | 0.00 | 0.00 | 0.00 | 58 | 1012.3 |
| 20260906025557 | 88 | 67 | 0.0 | 2.0 | 0.00 | 0.00 | 0.00 | 58 | 1012.2 |
| 20260906025057 | 88 | 0 | 0.0 | 3.0 | 0.00 | 0.00 | 0.00 | 58 | 1012.0 |
| 20260906024613 | 89 | 76 | 0.0 | 4.0 | 0.00 | 0.00 | 0.00 | 57 | 1011.9 |
| 20260906024054 | 89 | 0 | 0.0 | 4.0 | 0.00 | 0.00 | 0.00 | 57 | 1012.0 |
| 20260906023555 | 89 | 196 | 0.0 | 3.0 | 0.00 | 0.00 | 0.00 | 57 | 1012.0 |
| 20260906023104 | 89 | 92 | 1.0 | 4.0 | 0.00 | 0.00 | 0.00 | 57 | 1012.0 |
| 20260906022556 | 89 | 0 | 0.0 | 4.0 | 0.00 | 0.00 | 0.00 | 57 | 1012.0 |
| 20260906022055 | 89 | 58 | 0.0 | 5.0 | 0.00 | 0.00 | 0.00 | 56 | 1011.9 |
| 20260906021607 | 90 | 64 | 1.0 | 5.0 | 0.00 | 0.00 | 0.00 | 56 | 1011.8 |
| 20260906021055 | 90 | 275 | 1.0 | 5.0 | 0.00 | 0.00 | 0.00 | 56 | 1011.7 |
| 20260906020554 | 90 | 29 | 1.0 | 5.0 | 0.00 | 0.00 | 0.00 | 56 | 1011.7 |
| 20260906020109 | 90 | 160 | 1.0 | 5.0 | 0.00 | 0.00 | 0.00 | 55 | 1011.6 |
| 20260906015558 | 90 | 98 | 1.0 | 3.0 | 0.00 | 0.00 | 0.00 | 55 | 1011.5 |
| 20260906015056 | 90 | 67 | 1.0 | 4.0 | 0.00 | 0.00 | 0.00 | 55 | 1011.5 |
| 20260906014607 | 90 | 67 | 1.0 | 6.0 | 0.00 | 0.00 | 0.00 | 54 | 1011.5 |
| 20260906014054 | 91 | 61 | 1.0 | 6.0 | 0.00 | 0.00 | 0.00 | 54 | 1011.2 |
| 20260906013555 | 91 | 61 | 0.0 | 4.0 | 0.00 | 0.00 | 0.00 | 54 | 1011.4 |
| 20260906013104 | 91 | 0 | 1.0 | 5.0 | 0.00 | 0.00 | 0.00 | 54 | 1011.2 |
| 20260906012554 | 91 | 62 | 2.0 | 5.0 | 0.00 | 0.00 | 0.00 | 54 | 1011.1 |
| 20260906012055 | 92 | 173 | 1.0 | 5.0 | 0.00 | 0.00 | 0.00 | 53 | 1011.1 |
| 20260906011602 | 92 | 15 | 1.0 | 5.0 | 0.00 | 0.00 | 0.00 | 53 | 1010.9 |
| 20260906011056 | 92 | 201 | 2.0 | 8.0 | 0.00 | 0.00 | 0.00 | 52 | 1010.9 |
| 20260906010554 | 93 | 189 | 2.0 | 8.0 | 0.00 | 0.00 | 0.00 | 50 | 1010.7 |
| 20260906010143 | 93 | 84 | 1.0 | 8.0 | 0.00 | 0.00 | 0.00 | 48 | 1010.7 |
| 20260906005554 | 93 | 0 | 0.0 | 3.0 | 0.00 | 0.00 | 0.00 | 47 | 1010.6 |
| 20260906005057 | 94 | 76 | 0.0 | 3.0 | 0.00 | 0.00 | 0.00 | 46 | 1010.5 |
| 20260906004617 | 94 | 0 | 0.0 | 3.0 | 0.00 | 0.00 | 0.00 | 46 | 1010.6 |
| 20260906004055 | 94 | 182 | 0.0 | 3.0 | 0.00 | 0.00 | 0.00 | 45 | 1010.6 |
| 20260906003555 | 95 | 0 | 0.0 | 3.0 | 0.00 | 0.00 | 0.00 | 45 | 1010.6 |
| 20260906003108 | 95 | 0 | 0.0 | 3.0 | 0.00 | 0.00 | 0.00 | 45 | 1010.8 |
| 20260906002554 | 95 | 0 | 0.0 | 3.0 | 0.00 | 0.00 | 0.00 | 45 | 1010.6 |
| 20260906002052 | 95 | 0 | 1.0 | 3.0 | 0.00 | 0.00 | 0.00 | 44 | 1010.7 |
| 20260906001606 | 95 | 0 | 0.0 | 3.0 | 0.00 | 0.00 | 0.00 | 44 | 1010.6 |
| 20260906001054 | 96 | 0 | 1.0 | 3.0 | 0.00 | 0.00 | 0.00 | 43 | 1010.4 |
| 20260906000555 | 96 | 200 | 0.0 | 4.0 | 0.00 | 0.00 | 0.00 | 44 | 1010.3 |
| 20260906000108 | 96 | 0 | 1.0 | 7.0 | 0.00 | 0.00 | 0.00 | 43 | 1010.3 |
| 20260905235554 | 96 | 0 | 0.0 | 7.0 | 0.00 | 0.00 | 0.00 | 43 | 1010.3 |
| 20260905235055 | 97 | 197 | 1.0 | 7.0 | 0.00 | 0.00 | 0.00 | 42 | 1010.2 |
| 20260905234608 | 97 | 180 | 1.0 | 5.0 | 0.00 | 0.00 | 0.00 | 42 | 1010.4 |
| 20260905234056 | 97 | 118 | 1.0 | 4.0 | 0.00 | 0.00 | 0.00 | 42 | 1010.3 |
| 20260905233556 | 97 | 0 | 0.0 | 3.0 | 0.00 | 0.00 | 0.00 | 41 | 1010.3 |
| 20260905233103 | 97 | 187 | 0.0 | 4.0 | 0.00 | 0.00 | 0.00 | 40 | 1010.2 |
| 20260905232556 | 97 | 64 | 1.0 | 5.0 | 0.00 | 0.00 | 0.00 | 40 | 1010.2 |
| 20260905232056 | 97 | 151 | 0.0 | 5.0 | 0.00 | 0.00 | 0.00 | 39 | 1010.3 |
| 20260905231620 | 97 | 210 | 1.0 | 5.0 | 0.00 | 0.00 | 0.00 | 39 | 1010.3 |
| 20260905231055 | 97 | 124 | 1.0 | 5.0 | 0.00 | 0.00 | 0.00 | 40 | 1010.3 |
| 20260905230555 | 97 | 103 | 2.0 | 5.0 | 0.00 | 0.00 | 0.00 | 40 | 1010.4 |
| 20260905230109 | 97 | 215 | 0.0 | 4.0 | 0.00 | 0.00 | 0.00 | 41 | 1010.4 |
| 20260905225556 | 97 | 0 | 0.0 | 4.0 | 0.00 | 0.00 | 0.00 | 40 | 1010.4 |
| 20260905225056 | 98 | 194 | 0.0 | 4.0 | 0.00 | 0.00 | 0.00 | 41 | 1010.3 |
| 20260905224603 | 98 | 150 | 1.0 | 4.0 | 0.00 | 0.00 | 0.00 | 41 | 1010.3 |
| 20260905224057 | 97 | 317 | 0.0 | 2.0 | 0.00 | 0.00 | 0.00 | 41 | 1010.1 |
| 20260905223557 | 97 | 0 | 0.0 | 2.0 | 0.00 | 0.00 | 0.00 | 41 | 1010.3 |
| 20260905223106 | 98 | 0 | 0.0 | 4.0 | 0.00 | 0.00 | 0.00 | 40 | 1010.2 |
| 20260905222557 | 99 | 0 | 1.0 | 4.0 | 0.00 | 0.00 | 0.00 | 40 | 1010.3 |
| 20260905222056 | 98 | 0 | 0.0 | 5.0 | 0.00 | 0.00 | 0.00 | 39 | 1010.3 |
| 20260905221605 | 98 | 89 | 1.0 | 5.0 | 0.00 | 0.00 | 0.00 | 40 | 1010.4 |
| 20260905221056 | 98 | 148 | 0.0 | 4.0 | 0.00 | 0.00 | 0.00 | 40 | 1010.4 |
| 20260905220558 | 98 | 154 | 1.0 | 4.0 | 0.00 | 0.00 | 0.00 | 40 | 1010.5 |
| 20260905220106 | 99 | 199 | 1.0 | 4.0 | 0.00 | 0.00 | 0.00 | 40 | 1010.4 |
| 20260905215556 | 99 | 0 | 1.0 | 3.0 | 0.00 | 0.00 | 0.00 | 40 | 1010.4 |
| 20260905215059 | 98 | 216 | 0.0 | 4.0 | 0.00 | 0.00 | 0.00 | 41 | 1010.6 |
| 20260905214606 | 99 | 42 | 0.0 | 4.0 | 0.00 | 0.00 | 0.00 | 40 | 1010.7 |
| 20260905214056 | 99 | 71 | 1.0 | 6.0 | 0.00 | 0.00 | 0.00 | 40 | 1010.7 |
| 20260905213556 | 100 | 92 | 1.0 | 6.0 | 0.00 | 0.00 | 0.00 | 40 | 1010.6 |
| 20260905213106 | 100 | 69 | 1.0 | 5.0 | 0.00 | 0.00 | 0.00 | 39 | 1010.8 |
| 20260905212556 | 100 | 44 | 1.0 | 4.0 | 0.00 | 0.00 | 0.00 | 39 | 1010.7 |
| 20260905212056 | 100 | 74 | 1.0 | 4.0 | 0.00 | 0.00 | 0.00 | 39 | 1010.8 |
| 20260905211612 | 100 | 182 | 0.0 | 5.0 | 0.00 | 0.00 | 0.00 | 39 | 1010.8 |
| 20260905211055 | 100 | 180 | 1.0 | 5.0 | 0.00 | 0.00 | 0.00 | 39 | 1010.9 |
| 20260905210556 | 100 | 221 | 1.0 | 5.0 | 0.00 | 0.00 | 0.00 | 38 | 1011.0 |
| 20260905210122 | 101 | 0 | 1.0 | 5.0 | 0.00 | 0.00 | 0.00 | 38 | 1010.9 |
| 20260905205558 | 99 | 229 | 1.0 | 5.0 | 0.00 | 0.00 | 0.00 | 39 | 1011.0 |
| 20260905205056 | 99 | 67 | 1.0 | 3.0 | 0.00 | 0.00 | 0.00 | 41 | 1011.3 |
| 20260905204605 | 98 | 122 | 1.0 | 3.0 | 0.00 | 0.00 | 0.00 | 40 | 1011.3 |
| 20260905204055 | 100 | 53 | 1.0 | 6.0 | 0.00 | 0.00 | 0.00 | 39 | 1011.4 |
| 20260905203600 | 101 | 0 | 1.0 | 6.0 | 0.00 | 0.00 | 0.00 | 39 | 1011.4 |
| 20260905203104 | 101 | 188 | 0.0 | 6.0 | 0.00 | 0.00 | 0.00 | 39 | 1011.6 |
| 20260905202555 | 102 | 0 | 0.0 | 3.0 | 0.00 | 0.00 | 0.00 | 41 | 1011.6 |
| 20260905202100 | 100 | 267 | 0.0 | 3.0 | 0.00 | 0.00 | 0.00 | 41 | 1011.7 |
| 20260905201604 | 100 | 132 | 0.0 | 3.0 | 0.00 | 0.00 | 0.00 | 39 | 1011.7 |
| 20260905201055 | 102 | 113 | 0.0 | 3.0 | 0.00 | 0.00 | 0.00 | 42 | 1011.9 |
| 20260905200556 | 100 | 19 | 1.0 | 4.0 | 0.00 | 0.00 | 0.00 | 41 | 1011.9 |
| 20260905200127 | 100 | 150 | 1.0 | 4.0 | 0.00 | 0.00 | 0.00 | 40 | 1011.9 |
| 20260905195556 | 101 | 160 | 1.0 | 4.0 | 0.00 | 0.00 | 0.00 | 40 | 1012.0 |
| 20260905195055 | 103 | 0 | 0.0 | 4.0 | 0.00 | 0.00 | 0.00 | 38 | 1012.0 |
| 20260905194607 | 103 | 192 | 1.0 | 4.0 | 0.00 | 0.00 | 0.00 | 38 | 1012.2 |
| 20260905194058 | 102 | 157 | 0.0 | 5.0 | 0.00 | 0.00 | 0.00 | 38 | 1012.2 |
| 20260905193556 | 100 | 0 | 1.0 | 5.0 | 0.00 | 0.00 | 0.00 | 41 | 1012.3 |
| 20260905193108 | 98 | 185 | 0.0 | 3.0 | 0.00 | 0.00 | 0.00 | 43 | 1012.2 |
| 20260905192556 | 100 | 157 | 0.0 | 4.0 | 0.00 | 0.00 | 0.00 | 43 | 1012.3 |
| 20260905192055 | 99 | 166 | 1.0 | 4.0 | 0.00 | 0.00 | 0.00 | 41 | 1012.4 |
| 20260905191603 | 100 | 250 | 1.0 | 5.0 | 0.00 | 0.00 | 0.00 | 40 | 1012.3 |
| 20260905191056 | 97 | 227 | 1.0 | 5.0 | 0.00 | 0.00 | 0.00 | 44 | 1012.5 |
| 20260905190556 | 96 | 227 | 0.0 | 7.0 | 0.00 | 0.00 | 0.00 | 45 | 1012.8 |
| 20260905190105 | 96 | 185 | 1.0 | 8.0 | 0.00 | 0.00 | 0.00 | 44 | 1012.8 |
| 20260905185555 | 99 | 148 | 2.0 | 8.0 | 0.00 | 0.00 | 0.00 | 41 | 1012.8 |
| 20260905185055 | 100 | 191 | 1.0 | 8.0 | 0.00 | 0.00 | 0.00 | 40 | 1012.9 |
| 20260905184611 | 99 | 190 | 0.0 | 3.0 | 0.00 | 0.00 | 0.00 | 42 | 1012.8 |
| 20260905184055 | 99 | 342 | 1.0 | 5.0 | 0.00 | 0.00 | 0.00 | 41 | 1013.0 |
| 20260905183556 | 98 | 155 | 1.0 | 6.0 | 0.00 | 0.00 | 0.00 | 43 | 1013.1 |
| 20260905183108 | 99 | 0 | 0.0 | 7.0 | 0.00 | 0.00 | 0.00 | 41 | 1013.2 |
| 20260905182556 | 100 | 126 | 2.0 | 7.0 | 0.00 | 0.00 | 0.00 | 42 | 1013.3 |
| 20260905182056 | 98 | 154 | 1.0 | 6.0 | 0.00 | 0.00 | 0.00 | 43 | 1013.5 |
| 20260905181602 | 95 | 19 | 1.0 | 5.0 | 0.00 | 0.00 | 0.00 | 45 | 1013.4 |
| 20260905181056 | 96 | 167 | 1.0 | 6.0 | 0.00 | 0.00 | 0.00 | 44 | 1013.6 |
| 20260905180556 | 98 | 142 | 2.0 | 6.0 | 0.00 | 0.00 | 0.00 | 42 | 1013.6 |
| 20260905180108 | 99 | 59 | 1.0 | 4.0 | 0.00 | 0.00 | 0.00 | 41 | 1013.7 |
| 20260905175557 | 101 | 71 | 1.0 | 5.0 | 0.00 | 0.00 | 0.00 | 41 | 1013.8 |
| 20260905175056 | 99 | 202 | 1.0 | 5.0 | 0.00 | 0.00 | 0.00 | 43 | 1013.8 |
| 20260905174606 | 98 | 0 | 1.0 | 6.0 | 0.00 | 0.00 | 0.00 | 44 | 1013.9 |
| 20260905174055 | 97 | 0 | 1.0 | 6.0 | 0.00 | 0.00 | 0.00 | 42 | 1013.8 |
| 20260905173556 | 98 | 167 | 2.0 | 5.0 | 0.00 | 0.00 | 0.00 | 43 | 1013.9 |
| 20260905173104 | 99 | 71 | 0.0 | 2.0 | 0.00 | 0.00 | 0.00 | 42 | 1013.9 |
| 20260905172555 | 97 | 261 | 0.0 | 3.0 | 0.00 | 0.00 | 0.00 | 47 | 1014.1 |
| 20260905172055 | 96 | 0 | 0.0 | 4.0 | 0.00 | 0.00 | 0.00 | 46 | 1014.3 |
| 20260905171603 | 97 | 59 | 1.0 | 5.0 | 0.00 | 0.00 | 0.00 | 45 | 1014.4 |
| 20260905171056 | 97 | 115 | 1.0 | 5.0 | 0.00 | 0.00 | 0.00 | 45 | 1014.4 |
| 20260905170556 | 96 | 45 | 2.0 | 6.0 | 0.00 | 0.00 | 0.00 | 45 | 1014.4 |
| 20260905170104 | 96 | 28 | 1.0 | 6.0 | 0.00 | 0.00 | 0.00 | 47 | 1014.4 |
| 20260905165555 | 96 | 178 | 2.0 | 6.0 | 0.00 | 0.04 | 0.00 | 48 | 1014.3 |
| 20260905165056 | 96 | 69 | 1.0 | 5.0 | 0.00 | 0.04 | 0.00 | 47 | 1014.4 |
| 20260905164602 | 96 | 211 | 1.0 | 4.0 | 0.00 | 0.04 | 0.00 | 47 | 1014.4 |
| 20260905164055 | 95 | 65 | 1.0 | 4.0 | 0.00 | 0.04 | 0.00 | 49 | 1014.3 |
| 20260905163556 | 96 | 167 | 1.0 | 4.0 | 0.00 | 0.04 | 0.00 | 50 | 1014.4 |
| 20260905163104 | 95 | 54 | 1.0 | 4.0 | 0.00 | 0.04 | 0.00 | 50 | 1014.4 |
| 20260905162558 | 95 | 208 | 1.0 | 4.0 | 0.00 | 0.04 | 0.00 | 50 | 1014.4 |
| 20260905162056 | 95 | 33 | 1.0 | 3.0 | 0.00 | 0.04 | 0.00 | 51 | 1014.5 |
| 20260905161604 | 95 | 0 | 0.0 | 3.0 | 0.00 | 0.04 | 0.00 | 50 | 1014.6 |
| 20260905161056 | 93 | 0 | 1.0 | 3.0 | 0.00 | 0.04 | 0.00 | 53 | 1014.7 |
| 20260905160556 | 95 | 40 | 0.0 | 3.0 | 0.00 | 0.04 | 0.00 | 52 | 1014.5 |
| 20260905155555 | 93 | 68 | 0.0 | 3.0 | 0.00 | 0.15 | 0.00 | 55 | 1014.4 |
| 20260905155056 | 93 | 0 | 0.0 | 3.0 | 0.00 | 0.15 | 0.00 | 53 | 1014.3 |
| 20260905154609 | 92 | 36 | 0.0 | 2.0 | 0.00 | 0.15 | 0.00 | 57 | 1014.4 |
| 20260905154056 | 92 | 165 | 0.0 | 4.0 | 0.00 | 0.15 | 0.00 | 55 | 1014.4 |
| 20260905153559 | 92 | 16 | 0.0 | 4.0 | 0.00 | 0.15 | 0.00 | 55 | 1014.5 |
| 20260905153105 | 92 | 34 | 1.0 | 4.0 | 0.00 | 0.15 | 0.00 | 55 | 1014.4 |
| 20260905152559 | 92 | 261 | 0.0 | 5.0 | 0.00 | 0.15 | 0.00 | 55 | 1014.4 |
| 20260905152056 | 91 | 49 | 0.0 | 5.0 | 0.00 | 0.15 | 0.00 | 54 | 1014.4 |
| 20260905151633 | 91 | 64 | 1.0 | 5.0 | 0.00 | 0.15 | 0.00 | 54 | 1014.3 |
| 20260905151056 | 90 | 0 | 1.0 | 5.0 | 0.00 | 0.15 | 0.00 | 58 | 1014.3 |
| 20260905150556 | 89 | 162 | 0.0 | 4.0 | 0.00 | 0.15 | 0.00 | 61 | 1014.2 |
| 20260905150104 | 89 | 54 | 1.0 | 4.0 | 0.00 | 0.15 | 0.00 | 61 | 1014.4 |
| 20260905145559 | 88 | 78 | 1.0 | 4.0 | 0.00 | 0.15 | 0.00 | 61 | 1014.4 |
| 20260905145055 | 88 | 51 | 1.0 | 4.0 | 0.00 | 0.15 | 0.00 | 63 | 1014.5 |
| 20260905144605 | 87 | 0 | 0.0 | 3.0 | 0.00 | 0.15 | 0.00 | 67 | 1014.5 |
| 20260905144055 | 86 | 0 | 0.0 | 2.0 | 0.00 | 0.15 | 0.00 | 71 | 1014.6 |
| 20260905143557 | 86 | 0 | 0.0 | 2.0 | 0.00 | 0.15 | 0.00 | 71 | 1014.4 |
| 20260905143105 | 85 | 0 | 0.0 | 2.0 | 0.00 | 0.15 | 0.00 | 73 | 1014.5 |
| 20260905142600 | 85 | 50 | 0.0 | 2.0 | 0.00 | 0.15 | 0.00 | 73 | 1014.5 |
| 20260905142056 | 84 | 100 | 0.0 | 2.0 | 0.00 | 0.15 | 0.00 | 75 | 1014.4 |
| 20260905141606 | 84 | 0 | 0.0 | 3.0 | 0.00 | 0.15 | 0.00 | 75 | 1014.4 |
| 20260905141058 | 83 | 0 | 0.0 | 3.0 | 0.00 | 0.15 | 0.00 | 78 | 1014.4 |
| 20260905140556 | 82 | 69 | 0.0 | 2.0 | 0.00 | 0.15 | 0.00 | 79 | 1014.4 |
| 20260905135557 | 81 | 0 | 0.0 | 1.0 | 0.00 | 0.15 | 0.00 | 81 | 1014.4 |
| 20260905135057 | 81 | 0 | 0.0 | 1.0 | 0.00 | 0.15 | 0.00 | 82 | 1014.5 |
| 20260905134600 | 79 | 89 | 0.0 | 1.0 | 0.00 | 0.15 | 0.00 | 84 | 1014.4 |
| 20260905134059 | 78 | 0 | 0.0 | 1.0 | 0.00 | 0.15 | 0.00 | 88 | 1014.3 |
| 20260905133556 | 76 | 0 | 0.0 | 1.0 | 0.00 | 0.15 | 0.00 | 89 | 1014.3 |
| 20260905133103 | 76 | 0 | 0.0 | 1.0 | 0.00 | 0.15 | 0.00 | 89 | 1014.2 |
| 20260905132555 | 75 | 0 | 0.0 | 1.0 | 0.00 | 0.15 | 0.00 | 89 | 1014.1 |
| 20260905132055 | 75 | 0 | 0.0 | 1.0 | 0.00 | 0.15 | 0.00 | 88 | 1014.0 |
| 20260905131608 | 75 | 0 | 0.0 | 0.0 | 0.00 | 0.15 | 0.00 | 88 | 1013.9 |
| 20260905131056 | 75 | 0 | 0.0 | 0.0 | 0.00 | 0.15 | 0.00 | 88 | 1014.0 |
| 20260905130556 | 75 | 0 | 0.0 | 0.0 | 0.00 | 0.15 | 0.00 | 88 | 1014.1 |
| 20260905125555 | 75 | 0 | 0.0 | 2.0 | 0.00 | 0.15 | 0.00 | 88 | 1013.8 |
| 20260905125059 | 74 | 0 | 0.0 | 2.0 | 0.00 | 0.15 | 0.00 | 88 | 1013.8 |
| 20260905124601 | 74 | 0 | 0.0 | 1.0 | 0.00 | 0.15 | 0.00 | 87 | 1013.6 |
| 20260905124055 | 74 | 0 | 0.0 | 1.0 | 0.00 | 0.15 | 0.00 | 87 | 1013.5 |
| 20260905123555 | 74 | 0 | 0.0 | 1.0 | 0.00 | 0.15 | 0.00 | 87 | 1013.5 |
| 20260905123114 | 74 | 0 | 0.0 | 1.0 | 0.00 | 0.15 | 0.00 | 86 | 1013.5 |
| 20260905122558 | 73 | 0 | 0.0 | 1.0 | 0.00 | 0.15 | 0.00 | 86 | 1013.5 |
| 20260905122055 | 73 | 0 | 0.0 | 0.0 | 0.00 | 0.15 | 0.00 | 85 | 1013.5 |
| 20260905121605 | 73 | 0 | 0.0 | 0.0 | 0.00 | 0.15 | 0.00 | 85 | 1013.6 |
| 20260905121056 | 74 | 0 | 0.0 | 0.0 | 0.00 | 0.15 | 0.00 | 85 | 1013.5 |
| 20260905120559 | 74 | 0 | 0.0 | 0.0 | 0.00 | 0.15 | 0.00 | 85 | 1013.5 |
| 20260905120101 | 74 | 0 | 0.0 | 0.0 | 0.00 | 0.15 | 0.00 | 85 | 1013.6 |
| 20260905115556 | 74 | 0 | 0.0 | 0.0 | 0.00 | 0.15 | 0.00 | 85 | 1013.5 |
| 20260905115055 | 74 | 0 | 0.0 | 0.0 | 0.00 | 0.15 | 0.00 | 85 | 1013.5 |
| 20260905114605 | 74 | 0 | 0.0 | 0.0 | 0.00 | 0.15 | 0.00 | 85 | 1013.5 |
| 20260905114055 | 74 | 0 | 0.0 | 0.0 | 0.00 | 0.15 | 0.00 | 84 | 1013.5 |
| 20260905113555 | 74 | 0 | 0.0 | 0.0 | 0.00 | 0.15 | 0.00 | 84 | 1013.6 |
| 20260905113107 | 74 | 0 | 0.0 | 0.0 | 0.00 | 0.15 | 0.00 | 85 | 1013.5 |
| 20260905112559 | 74 | 0 | 0.0 | 0.0 | 0.00 | 0.15 | 0.00 | 84 | 1013.6 |
| 20260905112054 | 74 | 0 | 0.0 | 0.0 | 0.00 | 0.15 | 0.00 | 84 | 1013.6 |
| 20260905111606 | 75 | 0 | 0.0 | 0.0 | 0.00 | 0.15 | 0.00 | 84 | 1013.6 |
| 20260905111056 | 75 | 0 | 0.0 | 0.0 | 0.00 | 0.15 | 0.00 | 84 | 1013.6 |
| 20260905110601 | 75 | 0 | 0.0 | 0.0 | 0.00 | 0.15 | 0.00 | 84 | 1013.5 |
| 20260905110109 | 75 | 0 | 0.0 | 0.0 | 0.00 | 0.15 | 0.00 | 84 | 1013.6 |
| 20260905105556 | 75 | 0 | 0.0 | 0.0 | 0.00 | 0.15 | 0.00 | 84 | 1013.6 |
| 20260905105056 | 75 | 0 | 0.0 | 0.0 | 0.00 | 0.15 | 0.00 | 84 | 1013.6 |
| 20260905104605 | 75 | 0 | 0.0 | 0.0 | 0.00 | 0.15 | 0.00 | 84 | 1013.4 |
| 20260905104056 | 75 | 0 | 0.0 | 0.0 | 0.00 | 0.15 | 0.00 | 85 | 1013.5 |
| 20260905103556 | 75 | 0 | 0.0 | 0.0 | 0.00 | 0.15 | 0.00 | 84 | 1013.4 |
| 20260905103106 | 75 | 0 | 0.0 | 0.0 | 0.00 | 0.15 | 0.00 | 85 | 1013.4 |